Location: Prague
(50.0830°N, 14.4670°E)
Time: 23:54:44
(UTC+02:00)

N. Korean satellite - Pass Details

Date: 02 October 2021
Orbit: 450 x 494 km, 97.3° (Epoch: 28 October)

Event Time Altitude Azimuth Distance (km) Brightness Sun altitude
Rises 05:20:28 0° 29° (NNE) 2,554 10.9 -17.2°
Reaches altitude 10° 05:23:13 10° 52° (NE) 1,677 10.3 -16.8°
Maximum altitude 05:25:27 16° 91° (E) 1,369 9.9 -16.5°
Drops below altitude 10° 05:27:41 10° 129° (SE) 1,681 9.8 -16.1°
Sets 05:30:26 0° 152° (SSE) 2,563 10.4 -15.7°
